FW2736 Weather Reports


Display with metric or nautical units.
time (UTC)temp
F
wind
direction
speed
MPH
gust
MPH
rain 1hr
in
rain 24hr
in
rain mn
in
humidity
%
barometer
mb
20260510001935 87 269 12.0 0.0 0.00 0.00 0.00 25 1012.5
20260510001438 87 156 10.0 0.0 0.00 0.00 0.00 25 1012.5
20260510000937 88 135 12.0 0.0 0.00 0.00 0.00 26 1012.2
20260510000435 88 147 12.0 0.0 0.00 0.00 0.00 25 1012.2
20260509235938 88 122 10.0 0.0 0.00 0.00 0.00 26 1012.2
20260509235419 88 158 15.0 0.0 0.00 0.00 0.00 26 1012.2
20260509234940 89 151 11.0 0.0 0.00 0.00 0.00 26 1012.2
20260509234440 89 171 11.0 0.0 0.00 0.00 0.00 26 1012.2
20260509233940 90 138 11.0 0.0 0.00 0.00 0.00 25 1012.2
20260509233440 90 97 13.0 0.0 0.00 0.00 0.00 25 1012.2
20260509232919 90 115 13.0 0.0 0.00 0.00 0.00 26 1012.2
20260509232536 90 99 11.0 0.0 0.00 0.00 0.00 25 1012.2
20260509232217 91 149 11.0 0.0 0.00 0.00 0.00 25 1012.2
20260509231417 91 97 13.0 0.0 0.00 0.00 0.00 25 1012.2
20260509230940 91 116 12.0 0.0 0.00 0.00 0.00 25 1012.2
20260509230438 91 151 11.0 0.0 0.00 0.00 0.00 25 1012.2
20260509225936 91 148 17.0 0.0 0.00 0.00 0.00 25 1012.2
20260509225435 91 246 17.0 0.0 0.00 0.00 0.00 24 1012.2
20260509224940 92 133 13.0 0.0 0.00 0.00 0.00 24 1012.2
20260509224438 92 89 15.0 0.0 0.00 0.00 0.00 24 1012.2
20260509223938 93 148 11.0 0.0 0.00 0.00 0.00 24 1012.2
20260509223442 92 108 14.0 0.0 0.00 0.00 0.00 24 1012.5
20260509222939 92 133 14.0 0.0 0.00 0.00 0.00 25 1012.5
20260509222440 92 144 13.0 0.0 0.00 0.00 0.00 24 1012.5
20260509221915 92 167 13.0 0.0 0.00 0.00 0.00 25 1012.5
20260509221437 93 97 11.0 0.0 0.00 0.00 0.00 27 1012.5
20260509220939 93 159 13.0 0.0 0.00 0.00 0.00 25 1012.9
20260509220441 94 87 11.0 0.0 0.00 0.00 0.00 24 1012.9
20260509215939 94 122 10.0 0.0 0.00 0.00 0.00 24 1012.9
20260509215438 94 323 10.0 0.0 0.00 0.00 0.00 27 1012.9
20260509214942 95 308 9.0 0.0 0.00 0.00 0.00 27 1012.9
20260509214439 95 109 11.0 0.0 0.00 0.00 0.00 24 1012.9
20260509213937 95 298 11.0 0.0 0.00 0.00 0.00 25 1012.9
20260509213439 95 166 13.0 0.0 0.00 0.00 0.00 23 1012.9
20260509212940 95 169 13.0 0.0 0.00 0.00 0.00 22 1013.2
20260509212438 96 23 6.0 0.0 0.00 0.00 0.00 22 1013.2
20260509211937 96 65 4.0 0.0 0.00 0.00 0.00 21 1013.2
20260509211439 95 262 9.0 0.0 0.00 0.00 0.00 22 1013.2
20260509210944 95 157 7.0 0.0 0.00 0.00 0.00 22 1013.2
20260509210438 95 43 8.0 0.0 0.00 0.00 0.00 21 1013.2
20260509205940 95 343 7.0 0.0 0.00 0.00 0.00 21 1013.2
20260509205441 94 238 8.0 0.0 0.00 0.00 0.00 22 1013.2
20260509204941 95 97 7.0 0.0 0.00 0.00 0.00 22 1013.2
20260509204443 93 103 17.0 0.0 0.00 0.00 0.00 22 1013.2
20260509203940 92 322 17.0 0.0 0.00 0.00 0.00 22 1013.2
20260509203439 91 178 14.0 0.0 0.00 0.00 0.00 22 1013.5
20260509202938 91 108 12.0 0.0 0.00 0.00 0.00 21 1013.5
20260509202443 92 192 12.0 0.0 0.00 0.00 0.00 22 1013.5
20260509201938 91 161 10.0 0.0 0.00 0.00 0.00 23 1013.5
20260509201439 90 189 11.0 0.0 0.00 0.00 0.00 24 1013.5
20260509200938 90 143 14.0 0.0 0.00 0.00 0.00 25 1013.5
20260509200436 90 98 10.0 0.0 0.00 0.00 0.00 25 1013.5
20260509195942 90 124 11.0 0.0 0.00 0.00 0.00 25 1013.9
20260509195444 90 126 11.0 0.0 0.00 0.00 0.00 25 1013.9
20260509194936 89 102 10.0 0.0 0.00 0.00 0.00 25 1013.9
20260509194439 89 141 10.0 0.0 0.00 0.00 0.00 25 1013.9
20260509193940 90 137 12.0 0.0 0.00 0.00 0.00 25 1013.9
20260509193438 88 108 12.0 0.0 0.00 0.00 0.00 26 1014.2
20260509192942 89 107 10.0 0.0 0.00 0.00 0.00 25 1014.2
20260509192441 89 130 10.0 0.0 0.00 0.00 0.00 26 1014.2
20260509191939 89 136 7.0 0.0 0.00 0.00 0.00 25 1014.2
20260509191438 89 108 8.0 0.0 0.00 0.00 0.00 26 1014.2
20260509190940 89 173 9.0 0.0 0.00 0.00 0.00 27 1014.2
20260509190442 89 127 10.0 0.0 0.00 0.00 0.00 27 1014.2
20260509185939 90 168 7.0 0.0 0.00 0.00 0.00 27 1014.2
20260509185436 89 146 7.0 0.0 0.00 0.00 0.00 27 1014.2
20260509184939 88 127 10.0 0.0 0.00 0.00 0.00 28 1014.6
20260509184438 88 136 8.0 0.0 0.00 0.00 0.00 29 1014.6
20260509183940 88 278 8.0 0.0 0.00 0.00 0.00 30 1014.6
20260509183436 88 247 7.0 0.0 0.00 0.00 0.00 30 1014.6
20260509182943 89 269 6.0 0.0 0.00 0.00 0.00 29 1014.6
20260509182441 89 342 6.0 0.0 0.00 0.00 0.00 29 1014.6
20260509181915 88 19 4.0 0.0 0.00 0.00 0.00 29 1014.6
20260509181440 88 68 6.0 0.0 0.00 0.00 0.00 30 1014.6
20260509180942 87 44 6.0 0.0 0.00 0.00 0.00 31 1014.6
20260509180436 88 280 5.0 0.0 0.00 0.00 0.00 32 1014.6
20260509175941 86 142 6.0 0.0 0.00 0.00 0.00 32 1014.9
20260509175438 85 139 6.0 0.0 0.00 0.00 0.00 33 1014.9
20260509174941 85 308 5.0 0.0 0.00 0.00 0.00 36 1014.9
20260509174437 85 42 6.0 0.0 0.00 0.00 0.00 36 1014.9
20260509173942 84 137 6.0 0.0 0.00 0.00 0.00 40 1014.9
20260509173438 84 3 4.0 0.0 0.00 0.00 0.00 40 1014.9
20260509172938 84 76 4.0 0.0 0.00 0.00 0.00 41 1015.2
20260509172437 83 97 4.0 0.0 0.00 0.00 0.00 42 1015.2
20260509171943 83 52 6.0 0.0 0.00 0.00 0.00 43 1015.2
20260509171437 82 358 6.0 0.0 0.00 0.00 0.00 43 1015.2
20260509170941 81 107 5.0 0.0 0.00 0.00 0.00 44 1015.2
20260509170444 81 161 4.0 0.0 0.00 0.00 0.00 45 1015.2
20260509165937 81 97 4.0 0.0 0.00 0.00 0.00 45 1015.2
20260509165437 81 352 3.0 0.0 0.00 0.00 0.00 46 1015.2
20260509164940 80 286 5.0 0.0 0.00 0.00 0.00 47 1015.2
20260509164442 79 109 5.0 0.0 0.00 0.00 0.00 48 1015.2
20260509163940 78 86 5.0 0.0 0.00 0.00 0.00 48 1015.2
20260509163443 78 95 4.0 0.0 0.00 0.00 0.00 48 1015.2
20260509162941 78 107 4.0 0.0 0.00 0.00 0.00 50 1015.2
20260509162439 77 153 4.0 0.0 0.00 0.00 0.00 51 1015.2
20260509161942 76 147 4.0 0.0 0.00 0.00 0.00 52 1015.2
20260509161441 76 274 1.0 0.0 0.00 0.00 0.00 53 1015.2
20260509160937 75 35 1.0 0.0 0.00 0.00 0.00 53 1015.2
20260509160416 75 96 0.0 0.0 0.00 0.00 0.00 54 1015.2
20260509155938 74 61 0.0 0.0 0.00 0.00 0.00 55 1015.2
20260509155436 74 354 0.0 0.0 0.00 0.00 0.00 56 1015.2
20260509154940 73 58 0.0 0.0 0.00 0.00 0.00 57 1015.2
20260509154441 72 347 0.0 0.0 0.00 0.00 0.00 58 1015.2
20260509153938 72 170 0.0 0.0 0.00 0.00 0.00 58 1015.6
20260509153444 72 336 0.0 0.0 0.00 0.00 0.00 59 1015.6
20260509152940 71 48 0.0 0.0 0.00 0.00 0.00 60 1015.6
20260509152420 70 40 0.0 0.0 0.00 0.00 0.00 60 1015.6
20260509151920 70 14 0.0 0.0 0.00 0.00 0.00 62 1015.6
20260509151422 69 88 0.0 0.0 0.00 0.00 0.00 63 1015.6
20260509150921 68 78 0.0 0.0 0.00 0.00 0.00 64 1015.6
20260509150418 68 7 0.0 0.0 0.00 0.00 0.00 64 1015.6
20260509145918 67 352 0.0 0.0 0.00 0.00 0.00 65 1015.6
20260509145419 67 318 0.0 0.0 0.00 0.00 0.00 67 1015.6
20260509144918 67 341 0.0 0.0 0.00 0.00 0.00 67 1015.6
20260509144420 66 176 0.0 0.0 0.00 0.00 0.00 69 1015.6
20260509143918 65 344 0.0 0.0 0.00 0.00 0.00 71 1015.6
20260509143418 64 62 0.0 0.0 0.00 0.00 0.00 73 1015.6
20260509142918 63 40 0.0 0.0 0.00 0.00 0.00 74 1015.6
20260509142417 62 39 0.0 0.0 0.00 0.00 0.00 73 1015.6
20260509141917 63 339 2.0 0.0 0.00 0.00 0.00 73 1015.6
20260509141418 63 354 0.0 0.0 0.00 0.00 0.00 73 1015.6
20260509140917 64 299 0.0 0.0 0.00 0.00 0.00 78 1015.6
20260509140419 63 300 0.0 0.0 0.00 0.00 0.00 81 1015.6
20260509135916 61 321 0.0 0.0 0.00 0.00 0.00 84 1015.6
20260509135417 60 307 0.0 0.0 0.00 0.00 0.00 87 1015.6
20260509134916 59 197 0.0 0.0 0.00 0.00 0.00 88 1015.6
20260509134417 58 302 0.0 0.0 0.00 0.00 0.00 89 1015.2
20260509133915 57 296 0.0 0.0 0.00 0.00 0.00 89 1015.2
20260509133439 55 294 0.0 0.0 0.00 0.00 0.00 90 1015.2
20260509132917 54 234 0.0 0.0 0.00 0.00 0.00 90 1015.2
20260509132414 53 218 0.0 0.0 0.00 0.00 0.00 89 1015.2
20260509131916 52 286 0.0 0.0 0.00 0.00 0.00 89 1015.2
20260509131415 52 287 0.0 0.0 0.00 0.00 0.00 89 1015.2
20260509130915 52 272 0.0 0.0 0.00 0.00 0.00 89 1015.2
20260509130414 52 243 0.0 0.0 0.00 0.00 0.00 89 1015.2
20260509125914 52 292 0.0 0.0 0.00 0.00 0.00 89 1015.2
20260509125416 52 296 0.0 0.0 0.00 0.00 0.00 88 1015.2
20260509124914 52 293 0.0 0.0 0.00 0.00 0.00 88 1015.2
20260509124416 52 284 0.0 0.0 0.00 0.00 0.00 88 1015.2
20260509123936 52 281 0.0 0.0 0.00 0.00 0.00 88 1015.2
20260509123439 53 289 0.0 0.0 0.00 0.00 0.00 88 1015.2
20260509122914 53 291 0.0 0.0 0.00 0.00 0.00 88 1015.2
20260509122440 53 287 0.0 0.0 0.00 0.00 0.00 87 1015.2
20260509121936 53 285 0.0 0.0 0.00 0.00 0.00 87 1014.9
20260509121437 53 231 0.0 0.0 0.00 0.00 0.00 87 1014.9
20260509120939 53 291 0.0 0.0 0.00 0.00 0.00 87 1014.9
20260509120440 53 288 0.0 0.0 0.00 0.00 0.00 87 1014.9
20260509115938 53 309 0.0 0.0 0.00 0.00 0.00 87 1014.9
20260509115437 53 284 0.0 0.0 0.00 0.00 0.00 87 1014.9
20260509114937 54 280 0.0 0.0 0.00 0.00 0.00 87 1014.9
20260509114441 54 282 0.0 0.0 0.00 0.00 0.00 87 1014.9
20260509113939 54 300 0.0 0.0 0.00 0.00 0.00 86 1014.9
20260509113411 54 280 0.0 0.0 0.00 0.00 0.00 86 1014.9
20260509112935 54 258 0.0 0.0 0.00 0.00 0.00 86 1014.9
20260509112439 54 282 0.0 0.0 0.00 0.00 0.00 86 1014.9
20260509111942 54 280 0.0 0.0 0.00 0.00 0.00 86 1014.9
20260509111441 54 289 0.0 0.0 0.00 0.00 0.00 86 1015.2
20260509110915 55 280 0.0 0.0 0.00 0.00 0.00 85 1014.9
20260509110443 55 292 0.0 0.0 0.00 0.00 0.00 86 1014.9
20260509105910 55 280 0.0 0.0 0.00 0.00 0.00 86 1014.9
20260509105439 56 288 0.0 0.0 0.00 0.00 0.00 86 1014.9
20260509104942 55 300 0.0 0.0 0.00 0.00 0.00 86 1014.9
20260509104437 55 283 0.0 0.0 0.00 0.00 0.00 84 1015.2
20260509103912 55 294 0.0 0.0 0.00 0.00 0.00 84 1015.2
20260509103410 56 271 0.0 0.0 0.00 0.00 0.00 84 1015.2
20260509102941 56 290 0.0 0.0 0.00 0.00 0.00 84 1015.2
20260509102437 56 291 0.0 0.0 0.00 0.00 0.00 85 1015.2
20260509101913 56 289 0.0 0.0 0.00 0.00 0.00 85 1015.2
20260509101413 56 305 0.0 0.0 0.00 0.00 0.00 84 1015.2
20260509100941 56 296 0.0 0.0 0.00 0.00 0.00 84 1015.2
20260509100441 56 277 0.0 0.0 0.00 0.00 0.00 84 1015.2
20260509095941 56 285 0.0 0.0 0.00 0.00 0.00 84 1015.2
20260509095435 57 295 0.0 0.0 0.00 0.00 0.00 84 1015.2
20260509094937 56 324 0.0 0.0 0.00 0.00 0.00 83 1015.2
20260509094413 56 289 0.0 0.0 0.00 0.00 0.00 82 1015.2
20260509093939 56 292 0.0 0.0 0.00 0.00 0.00 81 1015.2
20260509093442 56 314 0.0 0.0 0.00 0.00 0.00 80 1015.2
20260509092940 57 302 0.0 0.0 0.00 0.00 0.00 80 1015.2
20260509092413 57 291 0.0 0.0 0.00 0.00 0.00 80 1015.6
20260509091939 57 300 0.0 0.0 0.00 0.00 0.00 80 1015.6
20260509091440 58 290 0.0 0.0 0.00 0.00 0.00 81 1015.6
20260509090942 58 299 0.0 0.0 0.00 0.00 0.00 81 1015.6
20260509090414 58 289 0.0 0.0 0.00 0.00 0.00 82 1015.6
20260509085941 57 287 0.0 0.0 0.00 0.00 0.00 80 1015.6
20260509085414 57 291 0.0 0.0 0.00 0.00 0.00 79 1015.6
20260509084917 57 292 0.0 0.0 0.00 0.00 0.00 79 1015.6
20260509084418 58 281 0.0 0.0 0.00 0.00 0.00 78 1015.9
20260509083915 58 288 0.0 0.0 0.00 0.00 0.00 78 1015.9
20260509083416 59 287 0.0 0.0 0.00 0.00 0.00 78 1015.9
20260509082914 59 286 0.0 0.0 0.00 0.00 0.00 79 1015.9
20260509082414 59 290 0.0 0.0 0.00 0.00 0.00 79 1015.9
20260509081916 59 305 0.0 0.0 0.00 0.00 0.00 77 1015.9
20260509081415 59 277 0.0 0.0 0.00 0.00 0.00 77 1015.9
20260509080915 59 298 0.0 0.0 0.00 0.00 0.00 76 1016.3
20260509080436 59 306 0.0 0.0 0.00 0.00 0.00 75 1016.3
20260509075914 60 292 0.0 0.0 0.00 0.00 0.00 74 1016.3
20260509075413 60 299 4.0 0.0 0.00 0.00 0.00 75 1016.3
20260509074938 60 291 0.0 0.0 0.00 0.00 0.00 75 1016.3
20260509074413 60 278 0.0 0.0 0.00 0.00 0.00 75 1016.3
20260509073915 60 308 0.0 0.0 0.00 0.00 0.00 73 1016.3
20260509073413 61 245 0.0 0.0 0.00 0.00 0.00 72 1016.3
20260509072916 61 169 0.0 0.0 0.00 0.00 0.00 71 1016.3
20260509072415 62 301 0.0 0.0 0.00 0.00 0.00 71 1016.3
20260509071913 62 302 0.0 0.0 0.00 0.00 0.00 70 1016.3
20260509071413 63 303 0.0 0.0 0.00 0.00 0.00 70 1016.3
20260509070914 63 307 0.0 0.0 0.00 0.00 0.00 69 1016.3
20260509070415 63 339 0.0 0.0 0.00 0.00 0.00 69 1016.3
20260509065914 64 264 0.0 0.0 0.00 0.00 0.00 68 1016.3
20260509065439 64 245 0.0 0.0 0.00 0.00 0.00 69 1016.3
20260509064913 64 254 0.0 0.0 0.00 0.00 0.00 68 1016.3
20260509064439 64 254 0.0 0.0 0.00 0.00 0.00 69 1016.3
20260509063914 64 255 0.0 0.0 0.00 0.00 0.00 70 1016.3
20260509063438 63 258 0.0 0.0 0.00 0.00 0.00 68 1016.3
20260509062938 64 278 0.0 0.0 0.00 0.00 0.00 68 1016.3
20260509062412 64 305 2.0 0.0 0.00 0.00 0.00 68 1016.3
20260509061912 64 315 6.0 0.0 0.00 0.00 0.00 68 1016.6
20260509061414 64 287 6.0 0.0 0.00 0.00 0.00 69 1016.3
20260509060910 64 309 0.0 0.0 0.00 0.00 0.00 67 1016.3
20260509060415 65 288 0.0 0.0 0.00 0.00 0.00 67 1016.3
20260509055914 65 278 0.0 0.0 0.00 0.00 0.00 66 1016.3
20260509055411 65 93 0.0 0.0 0.00 0.00 0.00 66 1016.3
20260509054911 65 245 0.0 0.0 0.00 0.00 0.00 67 1016.3
20260509054412 65 245 0.0 0.0 0.00 0.00 0.00 67 1016.3
20260509053912 65 305 0.0 0.0 0.00 0.00 0.00 67 1016.3
20260509053414 65 308 0.0 0.0 0.00 0.00 0.00 67 1016.3
20260509052910 65 309 0.0 0.0 0.00 0.00 0.00 65 1016.3
20260509052410 65 294 0.0 0.0 0.00 0.00 0.00 64 1016.3
20260509051911 66 281 0.0 0.0 0.00 0.00 0.00 63 1016.3
20260509051413 67 322 0.0 0.0 0.00 0.00 0.00 63 1016.3
20260509050913 67 291 0.0 0.0 0.00 0.00 0.00 63 1016.3
20260509050410 68 283 0.0 0.0 0.00 0.00 0.00 61 1016.3
20260509045911 68 337 0.0 0.0 0.00 0.00 0.00 59 1016.3
20260509045414 69 241 2.0 0.0 0.00 0.00 0.00 60 1016.3
20260509044912 68 226 4.0 0.0 0.00 0.00 0.00 60 1016.3
20260509044412 68 270 4.0 0.0 0.00 0.00 0.00 59 1016.3
20260509043913 68 248 5.0 0.0 0.00 0.00 0.00 59 1016.3
20260509043413 69 243 6.0 0.0 0.00 0.00 0.00 59 1016.3
20260509042914 69 271 7.0 0.0 0.00 0.00 0.00 58 1016.3
20260509042415 69 313 7.0 0.0 0.00 0.00 0.00 58 1016.3
20260509041912 69 198 5.0 0.0 0.00 0.00 0.00 58 1016.3
20260509041412 69 262 5.0 0.0 0.00 0.00 0.00 58 1015.9
20260509040912 69 139 5.0 0.0 0.00 0.00 0.00 58 1015.9
20260509040413 69 314 3.0 0.0 0.00 0.00 0.00 58 1015.9
20260509035912 69 310 7.0 0.0 0.00 0.00 0.00 58 1015.9
20260509035412 69 21 5.0 0.0 0.00 0.00 0.00 58 1015.6
20260509034912 69 324 3.0 0.0 0.00 0.00 0.00 58 1015.6
20260509034413 70 237 5.0 0.0 0.00 0.00 0.00 58 1015.6
20260509033915 70 159 5.0 0.0 0.00 0.00 0.00 59 1015.6
20260509033411 70 279 5.0 0.0 0.00 0.00 0.00 58 1015.6
20260509032914 71 271 3.0 0.0 0.00 0.00 0.00 58 1015.6
20260509032413 71 280 6.0 0.0 0.00 0.00 0.00 58 1015.6
20260509031928 71 53 6.0 0.0 0.00 0.00 0.00 58 1015.2
20260509031429 71 260 6.0 0.0 0.00 0.00 0.00 57 1015.2
20260509030926 72 261 5.0 0.0 0.00 0.00 0.00 57 1015.2
20260509030427 72 187 5.0 0.0 0.00 0.00 0.00 56 1015.2
20260509025926 72 125 5.0 0.0 0.00 0.00 0.00 56 1015.2
20260509025428 73 115 8.0 0.0 0.00 0.00 0.00 56 1015.2
20260509024928 73 155 7.0 0.0 0.00 0.00 0.00 55 1015.2
20260509024428 74 108 9.0 0.0 0.00 0.00 0.00 54 1014.9
20260509023925 74 119 9.0 0.0 0.00 0.00 0.00 54 1014.9
20260509023428 75 107 9.0 0.0 0.00 0.00 0.00 53 1014.9
20260509022927 76 103 9.0 0.0 0.00 0.00 0.00 52 1014.9
20260509022427 77 201 10.0 0.0 0.00 0.00 0.00 50 1014.6
20260509021924 78 152 6.0 0.0 0.00 0.00 0.00 48 1014.6
20260509021426 79 160 6.0 0.0 0.00 0.00 0.00 47 1014.6
20260509020927 79 76 4.0 0.0 0.00 0.00 0.00 45 1014.2
20260509020424 80 355 8.0 0.0 0.00 0.00 0.00 44 1014.2
20260509015924 80 90 8.0 0.0 0.00 0.00 0.00 44 1014.2
20260509015423 80 328 8.0 0.0 0.00 0.00 0.00 44 1014.2
20260509014926 81 342 4.0 0.0 0.00 0.00 0.00 42 1014.2
20260509014425 81 304 5.0 0.0 0.00 0.00 0.00 42 1013.9
20260509013923 81 265 8.0 0.0 0.00 0.00 0.00 42 1013.9
20260509013427 82 301 8.0 0.0 0.00 0.00 0.00 42 1013.9
20260509012924 82 297 7.0 0.0 0.00 0.00 0.00 41 1013.9
20260509012425 83 340 6.0 0.0 0.00 0.00 0.00 41 1013.9
20260509011925 83 33 7.0 0.0 0.00 0.00 0.00 40 1013.9
20260509011424 84 257 8.0 0.0 0.00 0.00 0.00 40 1013.9
20260509010923 85 191 11.0 0.0 0.00 0.00 0.00 39 1013.9
20260509010423 86 265 7.0 0.0 0.00 0.00 0.00 38 1013.9
20260509005925 86 2 7.0 0.0 0.00 0.00 0.00 38 1013.9
20260509005423 87 342 7.0 0.0 0.00 0.00 0.00 37 1013.9
20260509004923 87 354 7.0 0.0 0.00 0.00 0.00 36 1013.9
20260509004422 87 324 7.0 0.0 0.00 0.00 0.00 35 1013.9
20260509003923 88 338 5.0 0.0 0.00 0.00 0.00 35 1013.9
20260509003424 87 253 10.0 0.0 0.00 0.00 0.00 35 1013.9
20260509002923 88 318 10.0 0.0 0.00 0.00 0.00 34 1013.9
20260509002423 88 284 8.0 0.0 0.00 0.00 0.00 33 1013.9